Regional Weather Roundup
Issued by NWS Cleveland, OH

Home | Current Version | Previous Version | Text Only | Print | Product List | Glossary Off
Versions: 1 2 3 4 5 6 7 8 9 10 11 12 13 14 15 16 17 18 19 20 21 22 23 24 25 26 27 28 29 30 31 32 33 34 35 36 37 38 39 40 41 42 43 44 45 46 47 48 49 50

838
ASUS41 KCLE 100110
RWRCLE
OHIO REGIONAL WEATHER ROUNDUP
NATIONAL WEATHER SERVICE WILMINGTON, OH
800 PM EST TUE FEB 09 2016

NOTE: "FAIR" INDICATES FEW OR NO CLOUDS BELOW 12,000 FEET WITH NO
SIGNIFICANT WEATHER AND/OR OBSTRUCTIONS TO VISIBILITY.

OHZ001>008-015>018-024>027-034-035-043-044-100200-
   NORTHWEST OHIO

CITY           SKY/WX    TMP DP  RH WIND       PRES   REMARKS
DEFIANCE       CLOUDY    26  17  68 W9G22     29.80R WCI  17
FINDLAY        CLOUDY    27  17  66 W20G28    29.76R WCI  13
TOLEDO EXPRESS CLOUDY    26  18  71 W16G23    29.74R WCI  14
TOLEDO EXEC    CLOUDY    28  19  69 W20       29.74R WCI  15
LIMA           FLURRIES  23  19  85 W18       29.79R WCI   9
$$

OHZ009>014-019>023-028>033-038-089-100200-
   NORTHEAST OHIO

CITY           SKY/WX    TMP DP  RH WIND       PRES   REMARKS
CLE-HOPKINS    LGT SNOW  27  23  85 W16       29.71S FOG     WCI  15
CLE-LAKEFRONT  LGT SNOW  29  26  89 W23G35    29.68R FOG     WCI  15
CUY CO. ARPT   LGT SNOW  28  27  93 W14G28    29.67R WCI  17
LORAIN-ELYRIA  LGT SNOW  26  22  84 W12       29.71R FOG     WCI  16
ASHTABULA      LGT SNOW  28  25  88 W14       29.64R FOG     WCI  17
AKRON-CANTON   LGT SNOW  26  23  88 W15       29.68R WCI  14
WOOSTER        LGT SNOW  26  22  84 W12       29.70R FOG     WCI  16
MANSFIELD      LGT SNOW  25  22  88 W12       29.71R FOG     WCI  14
YOUNGSTOWN     LGT SNOW  28  24  85 SW13      29.64R FOG     WCI  17
$$

OHZ042-051>053-060>062-070>072-077>081-100200-
  SOUTHWEST OHIO

CITY           SKY/WX    TMP DP  RH WIND       PRES   REMARKS
CINC-COVINGTON FLURRIES  22  16  78 W16       29.89R WCI   8
CINC-LUNKEN    LGT SNOW  22  17  81 W13G23    29.92S WCI  10
HAMILTON       LGT SNOW  22  17  81 W9        29.91R WCI  12
DAYTON         FLURRIES  21  17  84 W13       29.84R WCI   9
WRIGHT-PAT AFB FLURRIES  23  17  80 W12G18    29.84R WCI  11
DAYTON GENERAL LGT SNOW  21  15  78 W9        29.85R WCI  11
WILMINGTON     LGT SNOW  21  17  84 W17       29.83S FOG     WCI   7
$$

OHZ036-037-039>041-045>050-054>059-063>069-073>076-082>088-100200-
  CENTRAL AND SOUTHEAST OHIO

CITY           SKY/WX    TMP DP  RH WIND       PRES   REMARKS
COLUMBUS       LGT SNOW  24  19  81 W15       29.79R WCI  11
OSU AIRPORT    FLURRIES  24  19  81 W17       29.79R WCI  11
BOLTON FIELD   LGT SNOW  24  20  87 W12G22    29.81R WCI  13
RICKENBACK AFB FLURRIES  24  20  87 W12       29.81S WCI  12
NEWARK         CLOUDY    25  20  81 MISG      29.77R
MARION         CLOUDY    26  18  71 W20       29.76R WCI  12
LANCASTER      LGT SNOW  23  19  85 W13       29.81R FOG     WCI  11
ZANESVILLE     LGT SNOW  25  19  78 SW12      29.77R WCI  14
NEW PHILLY     LGT SNOW  26  21  81 W12       29.73R WCI  16
$$




USA.gov is the U.S. government's official web portal to all federal, state and local government web resources and services.